Evans Head Observation History
Time Wind Speed Temp Pressure Rel. Hum Rain
19/07:00pm SSE 14-19 kts 16.3°c 1020.2 hPa 65% 0.0mm
19/06:30pm SSE 13-22 kts 16.3°c 1019.9 hPa 65% 0.0mm
19/06:00pm SSE 13-18 kts 16.0°c 1019.6 hPa 66% 0.0mm
19/05:30pm SSE 13-17 kts 16.1°c 1019.3 hPa 66% 0.0mm
19/05:00pm SSE 12-16 kts 15.9°c 1019.0 hPa 67% 0.0mm
19/04:30pm SSE 11-17 kts 15.8°c 1018.8 hPa 68% 0.0mm
19/04:00pm SSE 11-15 kts 16.6°c 1018.6 hPa 64% 0.0mm
19/03:30pm SSE 13-18 kts 17.3°c 1018.3 hPa 63% 0.0mm
19/03:00pm SSE 13-20 kts 17.6°c 1018.1 hPa 63% 0.0mm
19/02:30pm SSE 13-19 kts 17.8°c 1018.0 hPa 61% 0.0mm
19/02:00pm SSE 15-20 kts 18.1°c 1017.9 hPa 63% 0.0mm
19/01:30pm S 15-22 kts 18.4°c 1017.7 hPa 64% 0.0mm
19/01:00pm SSE 15-20 kts 18.2°c 1017.8 hPa 67% 0.0mm
19/12:30pm S 13-18 kts 17.4°c 1018.1 hPa 71% 0.0mm
19/12:00pm S 14-20 kts 17.8°c 1018.3 hPa 68% 0.0mm
19/11:30am SSE 14-18 kts 18.0°c 1018.5 hPa 69% 0.0mm
19/11:00am S 11-15 kts 18.6°c 1018.9 hPa 69% 0.0mm
19/10:30am S 11-16 kts 18.2°c 1019.2 hPa 68% 0.0mm
19/10:00am SSW 9-15 kts 17.5°c 1019.1 hPa 72% 0.0mm
19/09:30am SW 9-15 kts 16.1°c 1019.1 hPa 75% 0.0mm
19/09:00am SW 9-12 kts 14.6°c 1019.1 hPa 79% 3.0mm
19/08:30am WSW 8-13 kts 14.2°c 1018.9 hPa 81% 3.0mm
19/08:00am SW 9-12 kts 13.8°c 1018.3 hPa 81% 3.0mm
19/07:30am SW 10-14 kts 13.5°c 1017.9 hPa 80% 3.0mm
19/07:00am SW 10-13 kts 12.7°c 1017.7 hPa 86% 3.0mm
19/06:30am SW 8-11 kts 12.7°c 1017.4 hPa 88% 3.0mm
19/06:00am SW 6-9 kts 12.7°c 1017.2 hPa 92% 3.0mm
19/05:30am SSW 4-7 kts 13.1°c 1016.8 hPa 92% 3.0mm
19/05:00am WSW 7-10 kts 13.8°c 1016.4 hPa 92% 3.0mm
19/04:30am WSW 7-9 kts 13.8°c 1016.1 hPa 91% 2.8mm
19/04:00am WSW 8-9 kts 13.9°c 1016.0 hPa 90% 2.8mm
19/03:30am WSW 7-9 kts 13.8°c 1016.1 hPa 88% 2.8mm
19/03:00am WSW 7-8 kts 13.9°c 1016.3 hPa 88% 2.8mm
19/02:30am WSW 6-8 kts 13.8°c 1016.4 hPa 88% 2.8mm
19/02:00am WSW 7-8 kts 14.3°c 1016.5 hPa 88% 2.8mm
19/01:30am W 6-8 kts 14.4°c 1016.5 hPa 90% 2.8mm
19/01:00am W 7-9 kts 14.4°c 1016.5 hPa 91% 2.8mm
19/12:30am W 7-8 kts 14.5°c 1016.6 hPa 91% 2.8mm
19/12:00am W 7-8 kts 14.8°c 1016.7 hPa 91% 2.8mm
Time Wind Speed Temp Pressure Rel. Hum Rain
18/11:30pm W 6-8 kts 15.2°c 1016.9 hPa 90% 2.8mm
18/11:00pm W 6-7 kts 15.9°c 1017.0 hPa 89% 2.8mm
18/10:30pm WSW 6-7 kts 15.7°c 1017.1 hPa 90% 2.8mm
18/10:00pm WSW 7-8 kts 15.9°c 1017.1 hPa 87% 2.8mm
18/09:30pm WSW 6-7 kts 16.1°c 1017.1 hPa 86% 2.8mm
18/09:00pm WSW 5-6 kts 16.2°c 1017.1 hPa 85% 2.8mm
18/08:30pm WSW 5-11 kts 16.1°c 1017.1 hPa 85% 2.8mm
18/08:00pm SW 6-7 kts 16.5°c 1017.0 hPa 84% 2.8mm
18/07:30pm WSW 6-7 kts 16.4°c 1016.9 hPa 84% 2.8mm
18/07:00pm W 6-7 kts 16.4°c 1016.9 hPa 86% 2.8mm
18/06:30pm WSW 4-5 kts 16.1°c 1016.6 hPa 86% 2.8mm
18/06:00pm WSW 5-6 kts 16.0°c 1016.4 hPa 87% 2.8mm
18/05:30pm SW 6-8 kts 16.1°c 1016.0 hPa 87% 2.8mm
18/05:00pm S 6-7 kts 16.2°c 1015.6 hPa 85% 2.8mm
18/04:30pm SW 6-7 kts 17.2°c 1015.6 hPa 83% 2.8mm
18/04:00pm SW 5-8 kts 17.8°c 1015.6 hPa 83% 2.8mm
18/03:30pm WSW 4-7 kts 17.1°c 1015.9 hPa 89% 2.8mm
18/03:00pm WNW 3-5 kts 16.8°c 1015.8 hPa 92% 2.8mm
18/02:30pm WNW 4-5 kts 16.7°c 1015.8 hPa 93% 2.8mm
18/02:00pm SW 7-11 kts 15.8°c 1016.0 hPa 92% 2.2mm
18/01:30pm S 7-10 kts 16.2°c 1016.5 hPa 88% 1.0mm
18/01:00pm SSW 5-7 kts 18.0°c 1016.3 hPa 76% 0.0mm
18/12:30pm S 5-9 kts 18.4°c 1016.3 hPa 74% 0.0mm
18/12:00pm SSW 7-10 kts 18.8°c 1016.6 hPa 71% 0.0mm
18/11:30am WSW 6-9 kts 19.0°c 1017.0 hPa 69% 0.0mm
18/11:00am WSW 7-11 kts 18.3°c 1017.4 hPa 66% 0.0mm
18/10:30am SW 7-11 kts 17.2°c 1017.3 hPa 66% 0.0mm
18/10:00am SW 8-12 kts 16.3°c 1017.5 hPa 65% 0.0mm
18/09:30am WSW 7-10 kts 14.9°c 1017.7 hPa 66% 0.0mm
18/09:00am WNW 8-11 kts 14.0°c 1017.9 hPa 69% 0.0mm
18/08:30am WNW 7-10 kts 13.4°c 1017.9 hPa 70% 0.0mm
18/08:00am WNW 6-8 kts 13.4°c 1017.8 hPa 71% 0.0mm
18/07:30am W 6-10 kts 13.3°c 1017.3 hPa 69% 0.0mm
18/07:00am WSW 7-9 kts 13.2°c 1017.2 hPa 67% 0.0mm
18/06:30am WSW 7-9 kts 13.0°c 1017.0 hPa 67% 0.0mm
18/06:00am WSW 8-9 kts 12.7°c 1016.6 hPa 68% 0.0mm
18/05:30am WSW 8-10 kts 12.9°c 1016.1 hPa 67% 0.0mm
18/05:00am WSW 8-9 kts 12.8°c 1016.1 hPa 68% 0.0mm
18/04:30am WSW 8-10 kts 13.2°c 1016.1 hPa 66% 0.0mm
18/04:00am WSW 9-11 kts 13.8°c 1016.0 hPa 63% 0.0mm
18/03:30am WSW 8-10 kts 13.4°c 1016.2 hPa 65% 0.0mm
18/03:00am W 7-8 kts 12.3°c 1016.3 hPa 73% 0.0mm
18/02:30am WSW 8-9 kts 13.1°c 1016.3 hPa 72% 0.0mm
18/02:00am W 7-9 kts 12.9°c 1016.4 hPa 77% 0.0mm
18/01:30am W 6-8 kts 12.9°c 1016.6 hPa 77% 0.0mm
18/01:00am W 6-8 kts 12.7°c 1016.5 hPa 77% 0.0mm
18/12:30am WNW 7-9 kts 12.6°c 1016.7 hPa 78% 0.0mm
18/12:00am W 7-9 kts 12.9°c 1016.6 hPa 79% 0.0mm
Time Wind Speed Temp Pressure Rel. Hum Rain
17/11:30pm WNW 7-9 kts 13.1°c 1016.6 hPa 78% 0.0mm
17/11:00pm WNW 7-8 kts 14.4°c 1016.7 hPa 72% 0.0mm
17/10:30pm W 7-8 kts 14.3°c 1016.9 hPa 75% 0.0mm
17/10:00pm W 7-8 kts 14.4°c 1017.1 hPa 76% 0.0mm
17/09:30pm WNW 5-6 kts 12.9°c 1017.2 hPa 82% 0.0mm
17/09:00pm W 6-7 kts 15.5°c 1016.9 hPa 68% 0.0mm
17/08:30pm W 7-8 kts 15.2°c 1016.7 hPa 72% 0.0mm
17/08:00pm WSW 6-7 kts 14.7°c 1016.6 hPa 75% 0.0mm
17/07:30pm WSW 6-7 kts 15.0°c 1016.3 hPa 75% 0.0mm
17/07:00pm SSW 6-7 kts 15.6°c 1016.3 hPa 72% 0.0mm
17/06:30pm SSW 4-5 kts 15.8°c 1016.0 hPa 70% 0.0mm
17/06:00pm SSW 1-4 kts 15.5°c 1015.7 hPa 73% 0.0mm
17/05:30pm S 1-4 kts 15.7°c 1015.5 hPa 72% 0.0mm
17/05:00pm SSE 4-5 kts 15.9°c 1015.1 hPa 71% 0.0mm
17/04:30pm S 5-6 kts 16.4°c 1015.0 hPa 69% 0.0mm
17/04:00pm SSE 4-6 kts 17.4°c 1014.8 hPa 66% 0.0mm
17/03:30pm SSE 8-12 kts 17.9°c 1014.8 hPa 65% 0.0mm
17/03:00pm SSE 10-15 kts 18.3°c 1014.6 hPa 66% 0.0mm
17/02:30pm SSE 10-13 kts 18.7°c 1014.6 hPa 59% 0.0mm
17/02:00pm SSE 9-13 kts 19.0°c 1014.8 hPa 59% 0.0mm
17/01:30pm SSE 9-12 kts 18.9°c 1015.0 hPa 56% 0.0mm
17/01:00pm SSE 9-14 kts 19.2°c 1015.2 hPa 61% 0.0mm
17/12:30pm SSE 10-13 kts 18.9°c 1015.4 hPa 59% 0.0mm
17/12:00pm SSW 8-11 kts 19.3°c 1015.8 hPa 57% 0.0mm
17/11:30am S 8-13 kts 18.6°c 1016.1 hPa 56% 0.0mm
17/11:00am SSW 8-14 kts 18.1°c 1016.6 hPa 59% 0.0mm
17/10:30am SW 8-11 kts 17.4°c 1016.9 hPa 60% 0.0mm
17/10:00am SW 8-12 kts 16.4°c 1016.9 hPa 62% 0.0mm
17/09:30am SW 9-13 kts 15.6°c 1016.6 hPa 64% 0.0mm
17/09:00am SW 9-13 kts 15.1°c 1016.7 hPa 72% 2.0mm
17/08:30am SSW 7-11 kts 14.5°c 1016.6 hPa 84% 2.0mm
17/08:00am WSW 6-9 kts 13.9°c 1016.4 hPa 89% 2.0mm
17/07:30am W 7-9 kts 12.7°c 1016.1 hPa 94% 2.0mm
17/07:00am WNW 7-11 kts 12.4°c 1016.1 hPa 95% 2.0mm
17/06:30am W 8-11 kts 12.9°c 1015.8 hPa 95% 2.0mm
17/06:00am WSW 7-9 kts 13.3°c 1015.6 hPa 95% 2.0mm
17/05:30am WSW 7-11 kts 13.7°c 1015.4 hPa 95% 2.0mm
17/05:00am NNW 5-6 kts 13.6°c 1014.6 hPa 94% 2.0mm
17/04:30am NW 5-9 kts 13.7°c 1014.4 hPa 93% 2.0mm
17/04:00am WNW 5-7 kts 14.6°c 1014.5 hPa 95% 2.0mm
17/03:30am WNW 5-7 kts 14.9°c 1014.5 hPa 95% 2.0mm
17/03:00am WSW 6-8 kts 15.2°c 1014.9 hPa 96% 2.0mm
17/02:30am WSW 7-10 kts 15.5°c 1015.0 hPa 95% 2.0mm
17/02:00am SW 8-11 kts 15.1°c 1015.1 hPa 95% 2.0mm
17/01:30am SW 6-9 kts 14.7°c 1015.4 hPa 94% 2.0mm
17/01:00am WNW 6-8 kts 14.9°c 1015.3 hPa 94% 2.0mm
17/12:30am NW 6-8 kts 14.8°c 1015.6 hPa 93% 2.0mm
17/12:00am NW 6-7 kts 15.5°c 1016.0 hPa 94% 1.8mm